OE5WWO Weather Reports


Display with metric or nautical units.
time (UTC)temp
F
wind
direction
speed
MPH
gust
MPH
rain 1hr
in
rain 24hr
in
rain mn
in
humidity
%
barometer
mb
20260505121612 80 229 1.0 6.0 0.00 0.00 0.00 32 1005.4
20260505121037 80 267 2.0 6.0 0.00 0.00 0.00 32 1005.4
20260505120537 80 185 1.0 6.0 0.00 0.00 0.00 32 1005.6
20260505120056 80 309 0.0 7.0 0.00 0.00 0.00 34 1005.5
20260505115546 80 265 1.0 7.0 0.00 0.00 0.00 33 1005.6
20260505115040 79 211 2.0 6.0 0.00 0.00 0.00 29 1005.6
20260505114555 79 228 1.0 4.0 0.00 0.00 0.00 33 1005.7
20260505114041 78 310 1.0 8.0 0.00 0.00 0.00 33 1005.7
20260505113537 79 0 1.0 8.0 0.00 0.00 0.00 32 1005.8
20260505113049 79 338 1.0 8.0 0.00 0.00 0.00 38 1005.9
20260505112540 78 298 2.0 8.0 0.00 0.00 0.00 35 1006.0
20260505112041 78 292 2.0 8.0 0.00 0.00 0.00 35 1006.0
20260505111550 78 229 2.0 9.0 0.00 0.00 0.00 38 1006.2
20260505111040 77 327 2.0 9.0 0.00 0.00 0.00 41 1006.2
20260505110541 78 319 2.0 8.0 0.00 0.00 0.00 40 1006.4
20260505102040 76 325 1.0 6.0 0.00 0.00 0.00 45 1006.9
20260505101556 76 289 2.0 5.0 0.00 0.00 0.00 44 1006.9
20260505101040 75 0 0.0 7.0 0.00 0.00 0.00 47 1006.9
20260505100540 75 0 2.0 7.0 0.00 0.00 0.00 44 1006.9
20260505100058 75 232 1.0 5.0 0.00 0.00 0.00 44 1007.0
20260505095539 75 325 2.0 4.0 0.00 0.00 0.00 47 1007.0
20260505095039 75 195 1.0 4.0 0.00 0.00 0.00 46 1007.2
20260505094549 74 209 1.0 4.0 0.00 0.00 0.00 45 1007.2
20260505094039 74 168 1.0 5.0 0.00 0.00 0.00 46 1007.3
20260505093542 74 171 1.0 5.0 0.00 0.00 0.00 50 1007.4
20260505093048 74 182 1.0 4.0 0.00 0.00 0.00 50 1007.4
20260505092540 73 0 1.0 4.0 0.00 0.00 0.00 47 1007.5
20260505092040 73 311 1.0 4.0 0.00 0.00 0.00 47 1007.6
20260505091548 72 0 0.0 4.0 0.00 0.00 0.00 51 1007.6
20260505091039 72 164 1.0 4.0 0.00 0.00 0.00 50 1007.6
20260505090539 72 205 2.0 4.0 0.00 0.00 0.00 50 1007.8
20260505085538 71 0 2.0 5.0 0.00 0.00 0.00 53 1007.8
20260505085040 72 0 1.0 6.0 0.00 0.00 0.00 51 1007.9
20260505084611 72 245 2.0 7.0 0.00 0.00 0.00 51 1007.9
20260505084038 71 0 1.0 7.0 0.00 0.00 0.00 53 1007.9
20260505083537 71 200 2.0 7.0 0.00 0.00 0.00 52 1007.9
20260505083058 71 0 1.0 5.0 0.00 0.00 0.00 54 1007.9
20260505082537 71 162 0.0 5.0 0.00 0.00 0.00 52 1007.9
20260505082037 71 155 1.0 5.0 0.00 0.00 0.00 55 1008.0
20260505081549 70 187 1.0 4.0 0.00 0.00 0.00 55 1008.0
20260505081037 70 292 0.0 5.0 0.00 0.00 0.00 57 1008.0
20260505080536 70 0 0.0 5.0 0.00 0.00 0.00 56 1008.1
20260505080056 70 198 1.0 5.0 0.00 0.00 0.00 54 1008.1
20260505075539 70 281 0.0 3.0 0.00 0.00 0.00 55 1008.1
20260505075040 70 90 1.0 3.0 0.00 0.00 0.00 58 1008.1
20260505074549 69 0 1.0 3.0 0.00 0.00 0.00 59 1008.2
20260505074039 69 324 0.0 3.0 0.00 0.00 0.00 60 1008.2
20260505073540 68 213 0.0 3.0 0.00 0.00 0.00 60 1008.2
20260505073048 68 5 0.0 3.0 0.00 0.00 0.00 60 1008.1
20260505072542 67 0 1.0 3.0 0.00 0.00 0.00 61 1008.2
20260505072039 67 352 1.0 2.0 0.00 0.00 0.00 60 1008.3
20260505071547 67 29 0.0 2.0 0.00 0.00 0.00 62 1008.3
20260505071039 66 138 1.0 4.0 0.00 0.00 0.00 61 1008.3
20260505070538 66 0 0.0 4.0 0.00 0.00 0.00 62 1008.3
20260505070052 66 63 1.0 4.0 0.00 0.00 0.00 61 1008.4
20260505065536 66 90 0.0 3.0 0.00 0.00 0.00 61 1008.5
20260505065039 66 0 0.0 2.0 0.00 0.00 0.00 63 1008.5
20260505064551 65 88 0.0 3.0 0.00 0.00 0.00 63 1008.6
20260505064039 65 178 0.0 4.0 0.00 0.00 0.00 63 1008.6
20260505063539 65 0 0.0 4.0 0.00 0.00 0.00 65 1008.6
20260505063049 65 68 1.0 3.0 0.00 0.00 0.00 65 1008.6
20260505062540 64 0 0.0 3.0 0.00 0.00 0.00 66 1008.6
20260505062037 64 0 0.0 3.0 0.00 0.00 0.00 67 1008.7
20260505061557 63 157 0.0 2.0 0.00 0.00 0.00 67 1008.7
20260505061037 62 0 0.0 2.0 0.00 0.00 0.00 68 1008.8
20260505060537 62 0 0.0 2.0 0.00 0.00 0.00 70 1008.8
20260505060050 62 0 0.0 2.0 0.00 0.00 0.00 70 1008.8
20260505055537 61 251 0.0 1.0 0.00 0.00 0.00 70 1008.8
20260505055040 61 0 0.0 1.0 0.00 0.00 0.00 70 1008.9
20260505054548 61 0 0.0 1.0 0.00 0.00 0.00 70 1008.8
20260505054039 61 0 0.0 1.0 0.00 0.00 0.00 72 1008.8
20260505053539 60 0 0.0 1.0 0.00 0.00 0.00 72 1008.9
20260505053106 60 251 0.0 1.0 0.00 0.00 0.00 72 1008.8
20260505052539 60 0 0.0 1.0 0.00 0.00 0.00 73 1008.9
20260505052037 59 0 0.0 2.0 0.00 0.00 0.00 73 1008.8
20260505051550 59 0 0.0 2.0 0.00 0.00 0.00 75 1008.8
20260505051037 58 251 0.0 1.0 0.00 0.00 0.00 76 1008.9
20260505050537 58 0 0.0 0.0 0.00 0.00 0.00 77 1008.9
20260505041548 56 0 0.0 0.0 0.00 0.00 0.00 78 1009.0
20260505041039 56 0 0.0 0.0 0.00 0.00 0.00 78 1009.1
20260505040539 56 0 0.0 0.0 0.00 0.00 0.00 77 1009.0
20260505040053 56 0 0.0 0.0 0.00 0.00 0.00 77 1009.0
20260505035539 56 0 0.0 0.0 0.00 0.00 0.00 77 1009.0
20260505035038 56 0 0.0 0.0 0.00 0.00 0.00 76 1009.0
20260505034550 56 0 0.0 0.0 0.00 0.00 0.00 76 1009.0
20260505034039 56 0 0.0 0.0 0.00 0.00 0.00 75 1008.9
20260505033542 56 0 0.0 0.0 0.00 0.00 0.00 75 1008.7
20260505033109 57 0 0.0 0.0 0.00 0.00 0.00 74 1008.8
20260505032537 57 0 0.0 0.0 0.00 0.00 0.00 74 1008.9
20260505032039 57 0 0.0 0.0 0.00 0.00 0.00 74 1008.9
20260505031549 57 0 0.0 0.0 0.00 0.00 0.00 73 1008.9
20260505031042 57 0 0.0 0.0 0.00 0.00 0.00 73 1008.9
20260505030539 58 0 0.0 0.0 0.00 0.00 0.00 73 1008.9
20260505030053 58 0 0.0 0.0 0.00 0.00 0.00 72 1008.9
20260505025538 58 0 0.0 0.0 0.00 0.00 0.00 72 1009.0
20260505025040 58 0 0.0 0.0 0.00 0.00 0.00 72 1009.0
20260505024547 58 0 0.0 0.0 0.00 0.00 0.00 71 1009.1
20260505024039 58 0 0.0 0.0 0.00 0.00 0.00 71 1009.0
20260505023537 58 0 0.0 0.0 0.00 0.00 0.00 70 1009.0
20260505023100 59 0 0.0 0.0 0.00 0.00 0.00 70 1009.0
20260505022539 59 0 0.0 0.0 0.00 0.00 0.00 69 1008.9
20260505022042 59 0 0.0 0.0 0.00 0.00 0.00 69 1009.0
20260505021555 59 0 0.0 0.0 0.00 0.00 0.00 69 1009.0
20260505021038 59 0 0.0 0.0 0.00 0.00 0.00 68 1009.0
20260505020539 60 0 0.0 0.0 0.00 0.00 0.00 69 1009.1
20260505020051 60 0 0.0 0.0 0.00 0.00 0.00 68 1009.1
20260505015540 60 0 0.0 0.0 0.00 0.00 0.00 68 1009.1
20260505015042 60 0 0.0 0.0 0.00 0.00 0.00 67 1009.2
20260505014551 60 0 0.0 0.0 0.00 0.00 0.00 67 1009.2
20260505014042 60 0 0.0 0.0 0.00 0.00 0.00 67 1009.2
20260505013539 60 0 0.0 0.0 0.00 0.00 0.00 67 1009.1
20260505013049 60 0 0.0 0.0 0.00 0.00 0.00 67 1009.1
20260505012539 61 0 0.0 0.0 0.00 0.00 0.00 67 1009.2
20260505012039 61 0 0.0 0.0 0.00 0.00 0.00 67 1009.3
20260505011551 61 0 0.0 0.0 0.00 0.00 0.00 66 1009.2
20260505011038 61 0 0.0 0.0 0.00 0.00 0.00 65 1009.1
20260505010539 61 0 0.0 0.0 0.00 0.00 0.00 65 1009.2
20260505010052 61 0 0.0 0.0 0.00 0.00 0.00 64 1009.3
20260505005539 62 0 0.0 0.0 0.00 0.00 0.00 64 1009.2
20260505005038 62 0 0.0 0.0 0.00 0.00 0.00 64 1009.2
20260505004555 62 0 0.0 0.0 0.00 0.00 0.00 64 1009.3
20260505004037 62 0 0.0 0.0 0.00 0.00 0.00 62 1009.4
20260505003538 63 0 0.0 0.0 0.00 0.00 0.00 62 1009.5
20260505003047 63 0 0.0 0.0 0.00 0.00 0.00 61 1009.5
20260505002537 63 0 0.0 0.0 0.00 0.00 0.00 61 1009.5
20260505002038 64 0 0.0 0.0 0.00 0.00 0.00 60 1009.5
20260505001550 64 0 0.0 0.0 0.00 0.00 0.00 59 1009.6
20260505001038 64 0 0.0 0.0 0.00 0.00 0.00 59 1009.6
20260505000542 65 0 0.0 0.0 0.00 0.00 0.00 58 1009.6
20260505000051 65 0 0.0 1.0 0.00 0.00 0.00 58 1009.7
20260504235538 65 0 0.0 1.0 0.00 0.00 0.00 58 1009.7
20260504235039 65 0 0.0 3.0 0.00 0.00 0.00 57 1009.7
20260504234612 66 0 0.0 3.0 0.00 0.00 0.00 57 1009.7
20260504234037 66 0 0.0 4.0 0.00 0.00 0.00 56 1009.8
20260504233537 66 0 0.0 4.0 0.00 0.00 0.00 56 1009.8
20260504233048 66 0 1.0 4.0 0.00 0.00 0.00 55 1009.7
20260504232539 67 0 0.0 3.0 0.00 0.00 0.00 55 1009.7
20260504232039 67 0 1.0 5.0 0.00 0.00 0.00 54 1009.7
20260504231555 67 0 0.0 6.0 0.00 0.00 0.00 54 1009.7
20260504231038 67 155 1.0 6.0 0.00 0.00 0.00 53 1009.6
20260504230538 67 129 1.0 4.0 0.00 0.00 0.00 53 1009.6
20260504230050 67 188 0.0 3.0 0.00 0.00 0.00 53 1009.5
20260504225538 67 225 1.0 3.0 0.00 0.00 0.00 53 1009.3
20260504225037 67 0 0.0 2.0 0.00 0.00 0.00 53 1009.4
20260504224557 68 298 0.0 2.0 0.00 0.00 0.00 52 1009.3
20260504224038 68 0 0.0 1.0 0.00 0.00 0.00 52 1009.3
20260504223538 68 0 0.0 7.0 0.00 0.00 0.00 52 1009.4
20260504223046 68 0 0.0 8.0 0.00 0.00 0.00 51 1009.4
20260504222540 68 89 2.0 10.0 0.00 0.00 0.00 52 1009.4
20260504222037 67 293 1.0 10.0 0.00 0.00 0.00 52 1009.5
20260504221600 67 319 0.0 4.0 0.00 0.00 0.00 54 1009.5
20260504221040 67 0 0.0 4.0 0.00 0.00 0.00 53 1009.6
20260504220537 67 343 1.0 4.0 0.00 0.00 0.00 53 1009.7
20260504220054 67 321 1.0 7.0 0.00 0.00 0.00 54 1009.8
20260504215540 67 352 0.0 7.0 0.00 0.00 0.00 54 1009.8
20260504215039 67 281 1.0 4.0 0.00 0.00 0.00 55 1009.9
20260504214552 67 329 0.0 3.0 0.00 0.00 0.00 55 1010.0
20260504214039 67 0 0.0 3.0 0.00 0.00 0.00 55 1010.1
20260504213539 68 342 0.0 10.0 0.00 0.00 0.00 55 1010.2
20260504213101 68 0 0.0 10.0 0.00 0.00 0.00 55 1010.3
20260504212539 68 326 1.0 6.0 0.00 0.00 0.00 54 1010.4
20260504212041 68 319 1.0 7.0 0.00 0.00 0.00 54 1010.5
20260504211549 69 360 2.0 8.0 0.00 0.00 0.00 54 1010.6
20260504211039 69 311 2.0 11.0 0.00 0.00 0.00 53 1010.7
20260504210536 69 296 1.0 11.0 0.00 0.00 0.00 53 1010.7
20260504210057 69 277 2.0 11.0 0.00 0.00 0.00 52 1010.6
20260504205542 69 267 1.0 6.0 0.00 0.00 0.00 52 1010.5
20260504205043 68 304 1.0 7.0 0.00 0.00 0.00 52 1010.4
20260504204624 67 288 1.0 7.0 0.00 0.00 0.00 53 1010.4
20260504204039 67 229 0.0 1.0 0.00 0.00 0.00 54 1010.5
20260504203542 67 0 0.0 1.0 0.00 0.00 0.00 53 1010.2
20260504203051 67 0 0.0 2.0 0.00 0.00 0.00 52 1010.0
20260504202539 68 0 0.0 2.0 0.00 0.00 0.00 52 1009.9
20260504202042 68 0 0.0 6.0 0.00 0.00 0.00 51 1009.8
20260504201546 68 316 0.0 6.0 0.00 0.00 0.00 51 1009.9
20260504201039 68 278 0.0 4.0 0.00 0.00 0.00 51 1009.8
20260504200539 68 245 0.0 3.0 0.00 0.00 0.00 52 1009.7
20260504200056 68 278 0.0 3.0 0.00 0.00 0.00 51 1009.6
20260504195540 69 0 0.0 4.0 0.00 0.00 0.00 51 1009.6
20260504195044 69 0 0.0 4.0 0.00 0.00 0.00 51 1009.6
20260504194556 70 340 0.0 4.0 0.00 0.00 0.00 50 1009.6
20260504194039 70 323 0.0 4.0 0.00 0.00 0.00 50 1009.5
20260504193540 70 321 0.0 4.0 0.00 0.00 0.00 50 1009.5
20260504193054 70 319 0.0 4.0 0.00 0.00 0.00 49 1009.5
20260504192540 71 0 0.0 2.0 0.00 0.00 0.00 49 1009.5
20260504192039 71 315 1.0 2.0 0.00 0.00 0.00 49 1009.4
20260504191552 71 0 0.0 2.0 0.00 0.00 0.00 48 1009.4
20260504191039 71 309 0.0 2.0 0.00 0.00 0.00 48 1009.4
20260504190539 72 0 0.0 3.0 0.00 0.00 0.00 47 1009.3
20260504190057 72 0 0.0 3.0 0.00 0.00 0.00 47 1009.3
20260504185539 73 0 0.0 2.0 0.00 0.00 0.00 45 1009.2
20260504185039 73 331 0.0 2.0 0.00 0.00 0.00 43 1009.1
20260504184604 74 331 0.0 3.0 0.00 0.00 0.00 42 1009.1
20260504184039 74 55 0.0 3.0 0.00 0.00 0.00 41 1009.1
20260504183539 75 0 0.0 3.0 0.00 0.00 0.00 41 1009.0
20260504183058 75 0 1.0 6.0 0.00 0.00 0.00 40 1009.0
20260504182543 75 66 1.0 6.0 0.00 0.00 0.00 41 1009.0
20260504182038 75 0 1.0 3.0 0.00 0.00 0.00 41 1009.1
20260504181555 75 49 1.0 3.0 0.00 0.00 0.00 40 1009.0
20260504181040 76 74 0.0 4.0 0.00 0.00 0.00 40 1009.0
20260504180537 76 0 1.0 4.0 0.00 0.00 0.00 40 1009.1
20260504180054 76 60 1.0 3.0 0.00 0.00 0.00 40 1009.0
20260504175538 76 0 1.0 4.0 0.00 0.00 0.00 40 1009.0
20260504175037 77 60 1.0 4.0 0.00 0.00 0.00 39 1009.0
20260504174552 77 60 1.0 4.0 0.00 0.00 0.00 39 1009.0
20260504174038 77 74 0.0 4.0 0.00 0.00 0.00 38 1008.9
20260504173538 77 59 1.0 4.0 0.00 0.00 0.00 39 1008.9
20260504173053 77 63 1.0 4.0 0.00 0.00 0.00 39 1008.9
20260504172537 77 66 2.0 4.0 0.00 0.00 0.00 39 1009.0
20260504172038 78 71 1.0 4.0 0.00 0.00 0.00 39 1009.0
20260504171554 78 101 2.0 9.0 0.00 0.00 0.00 38 1009.0
20260504171037 78 51 1.0 9.0 0.00 0.00 0.00 38 1009.0
20260504170538 78 71 1.0 4.0 0.00 0.00 0.00 36 1009.0
20260504151036 82 325 1.0 7.0 0.00 0.00 0.00 31 1009.5
20260504150537 83 90 1.0 7.0 0.00 0.00 0.00 30 1009.5
20260504141036 85 188 1.0 4.0 0.00 0.00 0.00 29 1010.4
20260504140537 85 0 1.0 4.0 0.00 0.00 0.00 29 1010.5
20260504130537 81 26 1.0 3.0 0.00 0.00 0.00 33 1011.4